Location: Riddle Hill
(39.7867°N, 89.7645°W)
Time: 21:58:26
(UTC+00:00)

H-2A R/B - Pass Details

Date: 29 October 2020
Orbit: 577 x 656 km, 98.5° (Epoch: 01 December)

Event Time Altitude Azimuth Distance (km) Brightness Sun altitude
Rises 23:30:04 0° 4° (N) 2,828 5.3 -6.4°
Reaches altitude 10° 23:32:21 10° 356° (N) 1,914 4.5 -6.9°
Maximum altitude 23:36:09 37° 289° (WNW) 913 3.6 -7.6°
Drops below altitude 10° 23:39:54 10° 222° (SW) 1,883 5.4 -8.3°
Sets 23:42:08 0° 214° (SW) 2,776 6.2 -8.7°
